Regional Weather Roundup
Issued by NWS

Home | Current Version | Previous Version | Graphics & Text | Print | Product List | Glossary On
Versions: 1 2 3 4 5 6 7 8 9 10 11 12 13 14 15 16 17 18 19 20 21 22 23 24 25 26 27 28 29 30 31 32 33 34 35 36 37 38 39 40 41 42 43 44 45 46 47 48 49 50
000
ASUS43 KFSD 251102
RWRSD

WEATHER ROUNDUP FOR SOUTH DAKOTA
NATIONAL WEATHER SERVICE SIOUX FALLS SD
600 AM CDT THU MAY 25 2017

NOTE: "FAIR" INDICATES FEW OR NO CLOUDS BELOW 12,000 FEET WITH NO
SIGNIFICANT WEATHER AND/OR OBSTRUCTIONS TO VISIBILITY.


SDZ001>005-009-010-012>017-251200-
NORTHWEST AND NORTH CENTRAL SOUTH DAKOTA

CITY           SKY/WX    TMP DP  RH WIND       PRES   REMARKS
BUFFALO          N/A     45  43  93 W9        29.40R
FAITH            N/A     46  44  93 W10       29.40R
MOBRIDGE       PTCLDY    51  43  74 SE16      29.34F
$$

SDZ012>016-024>037-041>051-057-063-072>074-251200-
SOUTHWEST AND SOUTH CENTRAL SOUTH DAKOTA

CITY           SKY/WX    TMP DP  RH WIND       PRES   REMARKS
RAPID CTY ARPT PTCLDY    50  41  71 N9        29.45S
PIERRE         CLEAR     52  43  71 SE15G25   29.34R
CUSTER         CLOUDY    47  32  56 W3        29.53S
ELLSWORTH AFB  CLOUDY    52  42  67 NW9       29.45R
PHILIP         CLEAR     53  47  79 W15       29.38R
PINE RIDGE     CLOUDY    51  49  92 CALM      29.48R
SPEARFISH      FAIR      50  37  62 NW7       29.51S
WINNER         FAIR      55  45  68 S15       29.42R
$$

SDZ004>011-016>023-039-040-251200-
NORTHEAST SOUTH DAKOTA

CITY           SKY/WX    TMP DP  RH WIND       PRES   REMARKS
ABERDEEN       CLOUDY    51  44  77 SE16      29.48F
WATERTOWN      MOCLDY    49  44  83 SE15      29.57R
BROOKINGS      CLOUDY    49  45  86 S9        29.60R
SISSETON         N/A     44  43  96 SE9       29.58F
$$

SDZ017-020-022-023-036>040-048>070-251200-
SOUTHEAST SOUTH DAKOTA

CITY           SKY/WX    TMP DP  RH WIND       PRES   REMARKS
SIOUX FALLS    PTCLDY    51  46  83 SE13G21   29.58F
HURON          PTCLDY    52  44  74 SE17      29.50S
MITCHELL       PTCLDY    53  44  71 S14G26    29.53R
YANKTON          N/A     50  43  77 SE15G21   29.56F
$$

ABBREVIATIONS USED IN REMARKS
   TC - TEMPERATURE IN CELSIUS
  WCI - WIND CHILL INDEX
   HX - HEAT INDEX
  VSB - VISIBILITY





USA.gov is the U.S. government's official web portal to all federal, state and local government web resources and services.